Powrót do katalogu

BLITS

AktywnyNaukaSSO
NORAD 35871·PAYLOAD·🇷🇺 Russia

Wystrzelony Sep 17, 2009 z Baikonur Cosmodrome

Loading…

Następne Przeloty (najbliższe 24 godziny)

TLE

ŚwieżeSource: Space-Track

Epoka: Sep 14, 2026, 03:56 UTC

1 35871U 09049G   26257.16429722 -.00000005  00000-0  17824-4 0  9993
2 35871  98.7778 219.1319 0004473  72.0449 288.1215 14.22188618881120

Śledź BLITS w czasie rzeczywistym z AllMySat

Download on the App Store